Content
SEND FEEDBACK

Daily
Averages
Monthly
Summary
Switzerland

GENEVA, SWITZERLAND


Home > Europe > Switzerland
Elevation: 1364 feet     Latitude: 46 15N     Longitude: 006 08E

WEATHER
 
SELECT A DAY
Number of Records: 306,355;   Date Range: 7/1/96 - 9/20/14
 
SHARE

PRINT THIS DATA

[ ← Previous Day ]
WEATHER ALMANAC - JANUARY 16, 2013
[ Next Day → ]
[ °C ]   °F
Weather ElementAverageHighLow
Temperature27 °F33.8 °F (11:50 am)19.4 °F (5:20 am)
Dewpoint19.6 °F28.4 °F (12:20 am)15 °F (8:00 pm)
Humidity71.9 %93 % (12:20 am)41 % (2:00 pm)
Barometer29.73 in29.87 in (3:00 am)29.62 in (2:20 pm)
Wind Speed3.2 mph8.1 mph (10:20 pm)
Weather ElementAverage
Visibility7.6 mi
Wind DirectionESE (103.2 °)

Weather ElementTotal
Precipitation---
Heating Degree Days38.4 (Base 65)
Averaged from 66 records on January 16, 2013
WEATHER CONDITIONS BREAKOUT
WIND DIRECTION BREAKOUT
WEATHER BY HOUR - JANUARY 16, 2013
[ °C ]   °F
Local TimeTemperatureDewpointHumidityBarometerVisibilityWind DirectionWind SpeedGust SpeedPrecipitationEventsConditions
12:20 AM30.2 °F28.4 °F93 %29.77 in4.3 miVariable3.5 mphSnowLight Snow Showers
12:50 AM30.2 °F28.4 °F93 %29.77 in6.2 miVariable1.2 mphSnowLight Snow Showers
1:00 AM30.0 °F27.0 °F85 %29.84 in16.0 miSouth (170°)2.3 mphSnowLight Snow
1:20 AM30.2 °F28.4 °F93 %29.77 in6.2 miSSW (210°)3.5 mphMostly Cloudy
1:50 AM30.2 °F26.6 °F86 %29.77 in6.2 miVariable2.3 mphMostly Cloudy
2:00 AM29.0 °F26.0 °F82 %29.85 inNNW (340°)3.5 mph
2:50 AM26.6 °F21.2 °F80 %29.77 in6.2 miWNW (300°)3.5 mphPartly Cloudy
3:00 AM26.0 °F20.0 °F71 %29.87 inNNW (340°)3.5 mph
3:20 AM24.8 °F19.4 °F80 %29.77 in6.2 miVariable3.5 mphPartly Cloudy
3:50 AM24.8 °F19.4 °F80 %29.77 in6.2 miVariable3.5 mphPartly Cloudy
4:20 AM23.0 °F19.4 °F86 %29.77 in6.2 miVariable1.2 mphPartly Cloudy
4:50 AM23.0 °F19.4 °F86 %29.77 in6.2 miSouth (170°)3.5 mphPartly Cloudy
5:00 AM21.0 °F17.0 °F80 %29.86 inENE (70°)3.5 mph
5:20 AM19.4 °F17.6 °F93 %29.74 in6.2 miVariable2.3 mphPartly Cloudy
5:50 AM19.4 °F15.8 °F86 %29.74 in6.2 miVariable2.3 mphPartly Cloudy
6:00 AM20.0 °F17.0 °F83 %29.85 inWSW (240°)2.3 mph
6:21 AM19.4 °F17.6 °F93 %29.74 in6.2 miVariable2.3 mphScattered Clouds
6:50 AM21.2 °F19.4 °F93 %29.74 in6.2 miVariable2.3 mphScattered Clouds
7:00 AM23.0 °F18.0 °F74 %29.84 in25.0 miNorth (350°)2.3 mphPartly Cloudy
7:20 AM23.0 °F19.4 °F86 %29.74 in6.2 miVariable1.2 mphScattered Clouds
7:50 AM23.0 °F19.4 °F86 %29.74 in6.2 miVariable2.3 mphMostly Cloudy
8:00 AM24.0 °F18.0 °F70 %29.83 inWSW (240°)1.2 mph
8:20 AM23.0 °F19.4 °F86 %29.74 in6.2 miWest (260°)1.2 mphMostly Cloudy
8:50 AM23.0 °F19.4 °F86 %29.74 in6.2 miVariable1.2 mphMostly Cloudy
9:00 AM23.0 °F19.0 °F77 %29.83 inWNW (290°)2.3 mph
9:20 AM24.8 °F19.4 °F80 %29.74 in6.2 miVariable1.2 mphMostly Cloudy
9:50 AM28.4 °F21.2 °F74 %29.71 in6.2 miVariable1.2 mphMostly Cloudy
10:20 AM28.4 °F21.2 °F74 %29.71 in6.2 miVariable1.2 mphScattered Clouds
10:50 AM30.2 °F21.2 °F69 %29.71 in6.2 miSW (220°)2.3 mphPartly Cloudy
11:00 AM29.0 °F19.0 °F56 %29.79 inWNW (300°)2.3 mph
11:20 AM30.2 °F21.2 °F69 %29.71 in6.2 miVariable3.5 mphPartly Cloudy
11:50 AM33.8 °F21.2 °F60 %29.68 in6.2 miVariable1.2 mphPartly Cloudy
12:00 PM30.0 °F20.0 °F54 %29.77 inNE (40°)1.2 mph
12:20 PM33.8 °F21.2 °F60 %29.68 in6.2 miVariable1.2 mphPartly Cloudy
12:50 PM32.0 °F21.2 °F64 %29.68 in6.2 miEast (80°)3.5 mphPartly Cloudy
1:00 PM32.0 °F18.0 °F43 %29.74 in31.0 miENE (60°)3.5 mphScattered Clouds
1:20 PM33.8 °F19.4 °F56 %29.65 in6.2 miVariable1.2 mphPartly Cloudy
1:50 PM33.8 °F21.2 °F60 %29.65 in6.2 miVariable3.5 mphPartly Cloudy
2:00 PM32.0 °F17.0 °F41 %29.71 inNNE (30°)3.5 mph
2:20 PM32.0 °F19.4 °F60 %29.62 in6.2 miVariable2.3 mphPartly Cloudy
2:50 PM32.0 °F21.2 °F64 %29.62 in6.2 miNNE (20°)4.6 mphPartly Cloudy
3:00 PM31.0 °F20.0 °F50 %29.70 inNNE (20°)5.8 mph
3:20 PM32.0 °F19.4 °F60 %29.62 in6.2 miVariable3.5 mphPartly Cloudy
3:50 PM32.0 °F19.4 °F60 %29.65 in6.2 miNNE (30°)5.8 mphPartly Cloudy
4:20 PM32.0 °F21.2 °F64 %29.65 in6.2 miNNE (20°)5.8 mphPartly Cloudy
4:50 PM32.0 °F19.4 °F60 %29.65 in6.2 miNE (40°)5.8 mphPartly Cloudy
5:00 PM31.0 °F18.0 °F45 %29.72 inNNE (30°)5.8 mph
5:20 PM30.2 °F21.2 °F69 %29.65 in6.2 miNNE (20°)5.8 mphPartly Cloudy
5:50 PM28.4 °F19.4 °F69 %29.65 in6.2 miNorth (360°)4.6 mphPartly Cloudy
6:00 PM27.0 °F17.0 °F56 %29.75 inNorth4.6 mph
6:20 PM26.6 °F19.4 °F74 %29.68 in6.2 miNorth (350°)4.6 mphPartly Cloudy
6:50 PM26.6 °F17.6 °F69 %29.68 in6.2 miNorth (360°)5.8 mphPartly Cloudy
7:00 PM25.0 °F17.0 °F60 %29.77 in28.0 miNorth4.6 mphScattered Clouds
7:20 PM24.8 °F17.6 °F74 %29.68 in6.2 miNorth (350°)3.5 mphPartly Cloudy
7:50 PM23.0 °F17.6 °F80 %29.68 in6.2 miNorth (360°)3.5 mphPartly Cloudy
8:00 PM23.0 °F15.0 °F61 %29.79 inNorth (350°)3.5 mph
8:20 PM23.0 °F15.8 °F74 %29.68 in6.2 miVariable3.5 mphPartly Cloudy
8:50 PM23.0 °F15.8 °F74 %29.68 in6.2 miVariable2.3 mphScattered Clouds
9:00 PM23.0 °F15.0 °F62 %29.79 inWNW (300°)1.2 mph
9:20 PM21.2 °F15.8 °F80 %29.68 in6.2 miCalmMostly Cloudy
9:50 PM24.8 °F17.6 °F74 %29.68 in6.2 miVariable2.3 mphMostly Cloudy
10:20 PM26.6 °F17.6 °F69 %29.68 in6.2 miNE (50°)8.1 mphScattered Clouds
10:50 PM26.6 °F17.6 °F69 %29.71 in6.2 miNorth (360°)4.6 mphMostly Cloudy
11:00 PM27.0 °F15.0 °F47 %29.79 inNNE (20°)4.6 mph
11:20 PM26.6 °F19.4 °F74 %29.71 in6.2 miNNE (20°)3.5 mphMostly Cloudy
11:50 PM28.4 °F23.0 °F80 %29.71 in6.2 miNE (40°)5.8 mphMostly Cloudy
Hourly data recorded from LSGG, located miles away from Geneva, Switzerland







STORIES FROM OUR PARTNERS